Year,Month,Day,Hour,Minute,Value (Times are PST for temperature in C)
2019,03,27,00,00,3.40
2019,03,27,00,01,3.40
2019,03,27,00,02,3.40
2019,03,27,00,03,3.40
2019,03,27,00,04,3.40
2019,03,27,00,05,3.30
2019,03,27,00,06,3.30
2019,03,27,00,07,3.30
2019,03,27,00,08,3.30
2019,03,27,00,09,3.30
2019,03,27,00,10,3.30
2019,03,27,00,11,3.30
2019,03,27,00,12,3.30
2019,03,27,00,13,3.20
2019,03,27,00,14,3.20
2019,03,27,00,15,3.20
2019,03,27,00,16,3.20
2019,03,27,00,17,3.10
2019,03,27,00,18,3.10
2019,03,27,00,19,3.10
2019,03,27,00,20,3.10
2019,03,27,00,21,3.10
2019,03,27,00,22,3.10
2019,03,27,00,23,3.10
2019,03,27,00,24,3.00
2019,03,27,00,25,3.00
2019,03,27,00,26,3.00
2019,03,27,00,27,3.00
2019,03,27,00,28,3.00
2019,03,27,00,29,3.00
2019,03,27,00,30,3.00
2019,03,27,00,31,3.00
2019,03,27,00,32,3.00
2019,03,27,00,33,3.00
2019,03,27,00,34,2.90
2019,03,27,00,35,2.90
2019,03,27,00,36,2.90
2019,03,27,00,37,2.90
2019,03,27,00,38,2.90
2019,03,27,00,39,2.90
2019,03,27,00,40,2.90
2019,03,27,00,41,2.90
2019,03,27,00,42,2.90
2019,03,27,00,43,2.90
2019,03,27,00,44,2.90
2019,03,27,00,45,2.90
2019,03,27,00,46,2.90
2019,03,27,00,47,2.90
2019,03,27,00,48,2.90
2019,03,27,00,49,2.90
2019,03,27,00,50,2.90
2019,03,27,00,51,2.90
2019,03,27,00,52,2.90
2019,03,27,00,53,2.90
2019,03,27,00,54,2.90
2019,03,27,00,55,2.90
2019,03,27,00,56,2.90
2019,03,27,00,57,2.90
2019,03,27,00,58,2.90
2019,03,27,00,59,2.90
2019,03,27,01,00,2.90
2019,03,27,01,01,2.90
2019,03,27,01,02,2.90
2019,03,27,01,03,2.90
2019,03,27,01,04,3.00
2019,03,27,01,05,3.00
2019,03,27,01,06,3.00
2019,03,27,01,07,3.00
2019,03,27,01,08,3.00
2019,03,27,01,09,3.00
2019,03,27,01,10,3.10
2019,03,27,01,11,3.10
2019,03,27,01,12,3.10
2019,03,27,01,13,3.10
2019,03,27,01,14,3.10
2019,03,27,01,15,3.10
2019,03,27,01,16,3.20
2019,03,27,01,17,3.20
2019,03,27,01,18,3.20
2019,03,27,01,19,3.20
2019,03,27,01,20,3.20
2019,03,27,01,21,3.10
2019,03,27,01,22,3.10
2019,03,27,01,23,3.10
2019,03,27,01,24,3.10
2019,03,27,01,25,3.10
2019,03,27,01,26,3.10
2019,03,27,01,27,3.10
2019,03,27,01,28,3.10
2019,03,27,01,29,3.10
2019,03,27,01,30,3.10
2019,03,27,01,31,3.10
2019,03,27,01,32,3.10
2019,03,27,01,33,3.10
2019,03,27,01,34,3.10
2019,03,27,01,35,3.10
2019,03,27,01,36,3.20
2019,03,27,01,37,3.20
2019,03,27,01,38,3.20
2019,03,27,01,39,3.20
2019,03,27,01,40,3.20
2019,03,27,01,41,3.20
2019,03,27,01,42,3.20
2019,03,27,01,43,3.20
2019,03,27,01,44,3.20
2019,03,27,01,45,3.30
2019,03,27,01,46,3.30
2019,03,27,01,47,3.30
2019,03,27,01,48,3.30
2019,03,27,01,49,3.40
2019,03,27,01,50,3.40
2019,03,27,01,51,3.40
2019,03,27,01,52,3.50
2019,03,27,01,53,3.60
2019,03,27,01,54,3.70
2019,03,27,01,55,3.70
2019,03,27,01,56,3.80
2019,03,27,01,57,3.80
2019,03,27,01,58,3.90
2019,03,27,01,59,3.90
2019,03,27,02,00,4.00
2019,03,27,02,01,4.00
2019,03,27,02,02,4.00
2019,03,27,02,03,4.00
2019,03,27,02,04,4.10
2019,03,27,02,05,4.10
2019,03,27,02,06,4.20
2019,03,27,02,07,4.20
2019,03,27,02,08,4.20
2019,03,27,02,09,4.30
2019,03,27,02,10,4.30
2019,03,27,02,11,4.30
2019,03,27,02,12,4.30
2019,03,27,02,13,4.30
2019,03,27,02,14,4.30
2019,03,27,02,15,4.40
2019,03,27,02,16,4.40
2019,03,27,02,17,4.40
2019,03,27,02,18,4.40
2019,03,27,02,19,4.40
2019,03,27,02,20,4.40
2019,03,27,02,21,4.40
2019,03,27,02,22,4.40
2019,03,27,02,23,4.40
2019,03,27,02,24,4.40
2019,03,27,02,25,4.40
2019,03,27,02,26,4.50
2019,03,27,02,27,4.50
2019,03,27,02,28,4.60
2019,03,27,02,29,4.60
2019,03,27,02,30,4.60
2019,03,27,02,31,4.70
2019,03,27,02,32,4.70
2019,03,27,02,33,4.70
2019,03,27,02,34,4.70
2019,03,27,02,35,4.70
2019,03,27,02,36,4.70
2019,03,27,02,37,4.70
2019,03,27,02,38,4.70
2019,03,27,02,39,4.60
2019,03,27,02,40,4.60
2019,03,27,02,41,4.60
2019,03,27,02,42,4.60
2019,03,27,02,43,4.50
2019,03,27,02,44,4.50
2019,03,27,02,45,4.50
2019,03,27,02,46,4.50
2019,03,27,02,47,4.50
2019,03,27,02,48,4.50
2019,03,27,02,49,4.50
2019,03,27,02,50,4.50
2019,03,27,02,51,4.50
2019,03,27,02,52,4.60
2019,03,27,02,53,4.60
2019,03,27,02,54,4.60
2019,03,27,02,55,4.60
2019,03,27,02,56,4.60
2019,03,27,02,57,4.60
2019,03,27,02,58,4.60
2019,03,27,02,59,4.60
2019,03,27,03,00,4.60
2019,03,27,03,01,4.60
2019,03,27,03,02,4.60
2019,03,27,03,03,4.60
2019,03,27,03,04,4.50
2019,03,27,03,05,4.50
2019,03,27,03,06,4.50
2019,03,27,03,07,4.50
2019,03,27,03,08,4.40
2019,03,27,03,09,4.40
2019,03,27,03,10,4.40
2019,03,27,03,11,4.40
2019,03,27,03,12,4.40
2019,03,27,03,13,4.50
2019,03,27,03,14,4.50
2019,03,27,03,15,4.40
2019,03,27,03,16,4.40
2019,03,27,03,17,4.40
2019,03,27,03,18,4.40
2019,03,27,03,19,4.40
2019,03,27,03,20,4.40
2019,03,27,03,21,4.40
2019,03,27,03,22,4.30
2019,03,27,03,23,4.30
2019,03,27,03,24,4.30
2019,03,27,03,25,4.30
2019,03,27,03,26,4.30
2019,03,27,03,27,4.30
2019,03,27,03,28,4.30
2019,03,27,03,29,4.30
2019,03,27,03,30,4.40
2019,03,27,03,31,4.40
2019,03,27,03,32,4.40
2019,03,27,03,33,4.50
2019,03,27,03,34,4.60
2019,03,27,03,35,4.60
2019,03,27,03,36,4.60
2019,03,27,03,37,4.70
2019,03,27,03,38,4.70
2019,03,27,03,39,4.70
2019,03,27,03,40,4.70
2019,03,27,03,41,4.80
2019,03,27,03,42,4.80
2019,03,27,03,43,4.80
2019,03,27,03,44,4.80
2019,03,27,03,45,4.90
2019,03,27,03,46,4.90
2019,03,27,03,47,4.90
2019,03,27,03,48,5.00
2019,03,27,03,49,5.00
2019,03,27,03,50,5.10
2019,03,27,03,51,5.10
2019,03,27,03,52,5.10
2019,03,27,03,53,5.10
2019,03,27,03,54,5.20
2019,03,27,03,55,5.20
2019,03,27,03,56,5.20
2019,03,27,03,57,5.20
2019,03,27,03,58,5.20
2019,03,27,03,59,5.20
2019,03,27,04,00,5.30
2019,03,27,04,01,5.30
2019,03,27,04,02,5.30
2019,03,27,04,03,5.30
2019,03,27,04,04,5.30
2019,03,27,04,05,5.30
2019,03,27,04,06,5.30
2019,03,27,04,07,5.40
2019,03,27,04,08,5.40
2019,03,27,04,09,5.40
2019,03,27,04,10,5.40
2019,03,27,04,11,5.40
2019,03,27,04,12,5.40
2019,03,27,04,13,5.40
2019,03,27,04,14,5.40
2019,03,27,04,15,5.40
2019,03,27,04,16,5.40
2019,03,27,04,17,5.50
2019,03,27,04,18,5.50
2019,03,27,04,19,5.40
2019,03,27,04,20,5.40
2019,03,27,04,21,5.40
2019,03,27,04,22,5.40
2019,03,27,04,23,5.40
2019,03,27,04,24,5.50
2019,03,27,04,25,5.50
2019,03,27,04,26,5.60
2019,03,27,04,27,5.60
2019,03,27,04,28,5.50
2019,03,27,04,29,5.50
2019,03,27,04,30,5.50
2019,03,27,04,31,5.50
2019,03,27,04,32,5.50
2019,03,27,04,33,5.60
2019,03,27,04,34,5.60
2019,03,27,04,35,5.60
2019,03,27,04,36,5.60
2019,03,27,04,37,5.60
2019,03,27,04,38,5.60
2019,03,27,04,39,5.70
2019,03,27,04,40,5.70
2019,03,27,04,41,5.70
2019,03,27,04,42,5.70
2019,03,27,04,43,5.70
2019,03,27,04,44,5.70
2019,03,27,04,45,5.70
2019,03,27,04,46,5.70
2019,03,27,04,47,5.70
2019,03,27,04,48,5.70
2019,03,27,04,49,5.70
2019,03,27,04,50,5.70
2019,03,27,04,51,5.70
2019,03,27,04,52,5.70
2019,03,27,04,53,5.70
2019,03,27,04,54,5.70
2019,03,27,04,55,5.70
2019,03,27,04,56,5.70
2019,03,27,04,57,5.70
2019,03,27,04,58,5.70
2019,03,27,04,59,5.70
2019,03,27,05,00,5.70
2019,03,27,05,01,5.70
2019,03,27,05,02,5.70
2019,03,27,05,03,5.70
2019,03,27,05,04,5.70
2019,03,27,05,05,5.70
2019,03,27,05,06,5.70
2019,03,27,05,07,5.70
2019,03,27,05,08,5.60
2019,03,27,05,09,5.60
2019,03,27,05,10,5.60
2019,03,27,05,11,5.70
2019,03,27,05,12,5.70
2019,03,27,05,13,5.70
2019,03,27,05,14,5.70
2019,03,27,05,15,5.70
2019,03,27,05,16,5.70
2019,03,27,05,17,5.70
2019,03,27,05,18,5.70
2019,03,27,05,19,5.70
2019,03,27,05,20,5.70
2019,03,27,05,21,5.70
2019,03,27,05,22,5.70
2019,03,27,05,23,5.70
2019,03,27,05,24,5.70
2019,03,27,05,25,5.70
2019,03,27,05,26,5.70
2019,03,27,05,27,5.60
2019,03,27,05,28,5.70
2019,03,27,05,29,5.70
2019,03,27,05,30,5.70
2019,03,27,05,31,5.70
2019,03,27,05,32,5.70
2019,03,27,05,33,5.70
2019,03,27,05,34,5.70
2019,03,27,05,35,5.70
2019,03,27,05,36,5.70
2019,03,27,05,37,5.70
2019,03,27,05,38,5.80
2019,03,27,05,39,5.80
2019,03,27,05,40,5.80
2019,03,27,05,41,5.80
2019,03,27,05,42,5.70
2019,03,27,05,43,5.70
2019,03,27,05,44,5.70
2019,03,27,05,45,5.70
2019,03,27,05,46,5.70
2019,03,27,05,47,5.60
2019,03,27,05,48,5.60
2019,03,27,05,49,5.60
2019,03,27,05,50,5.60
2019,03,27,05,51,5.60
2019,03,27,05,52,5.60
2019,03,27,05,53,5.60
2019,03,27,05,54,5.50
2019,03,27,05,55,5.50
2019,03,27,05,56,5.50
2019,03,27,05,57,5.50
2019,03,27,05,58,5.40
2019,03,27,05,59,5.50
2019,03,27,06,00,5.40
2019,03,27,06,01,5.40
2019,03,27,06,02,5.40
2019,03,27,06,03,5.40
2019,03,27,06,04,5.40
2019,03,27,06,05,5.40
2019,03,27,06,06,5.30
2019,03,27,06,07,5.30
2019,03,27,06,08,5.30
2019,03,27,06,09,5.30
2019,03,27,06,10,5.30
2019,03,27,06,11,5.30
2019,03,27,06,12,5.30
2019,03,27,06,13,5.40
2019,03,27,06,14,5.40
2019,03,27,06,15,5.40
2019,03,27,06,16,5.40
2019,03,27,06,17,5.30
2019,03,27,06,18,5.30
2019,03,27,06,19,5.30
2019,03,27,06,20,5.30
2019,03,27,06,21,5.30
2019,03,27,06,22,5.30
2019,03,27,06,23,5.20
2019,03,27,06,24,5.20
2019,03,27,06,25,5.20
2019,03,27,06,26,5.20
2019,03,27,06,27,5.30
2019,03,27,06,28,5.30
2019,03,27,06,29,5.40
2019,03,27,06,30,5.40
2019,03,27,06,31,5.40
2019,03,27,06,32,5.40
2019,03,27,06,33,5.40
2019,03,27,06,34,5.50
2019,03,27,06,35,5.50
2019,03,27,06,36,5.50
2019,03,27,06,37,5.50
2019,03,27,06,38,5.60
2019,03,27,06,39,5.60
2019,03,27,06,40,5.60
2019,03,27,06,41,5.60
2019,03,27,06,42,5.60
2019,03,27,06,43,5.60
2019,03,27,06,44,5.60
2019,03,27,06,45,5.50
2019,03,27,06,46,5.50
2019,03,27,06,47,5.50
2019,03,27,06,48,5.50
2019,03,27,06,49,5.50
2019,03,27,06,50,5.50
2019,03,27,06,51,5.50
2019,03,27,06,52,5.50
2019,03,27,06,53,5.50
2019,03,27,06,54,5.50
2019,03,27,06,55,5.50
2019,03,27,06,56,5.50
2019,03,27,06,57,5.40
2019,03,27,06,58,5.30
2019,03,27,06,59,5.20
2019,03,27,07,00,5.20
2019,03,27,07,01,5.10
2019,03,27,07,02,5.10
2019,03,27,07,03,5.00
2019,03,27,07,04,4.90
2019,03,27,07,05,4.90
2019,03,27,07,06,4.80
2019,03,27,07,07,4.80
2019,03,27,07,08,4.80
2019,03,27,07,09,4.70
2019,03,27,07,10,4.70
2019,03,27,07,11,4.70
2019,03,27,07,12,4.70
2019,03,27,07,13,4.70
2019,03,27,07,14,4.60
2019,03,27,07,15,4.50
2019,03,27,07,16,4.50
2019,03,27,07,17,4.40
2019,03,27,07,18,4.30
2019,03,27,07,19,4.20
2019,03,27,07,20,4.20
2019,03,27,07,21,4.10
2019,03,27,07,22,4.00
2019,03,27,07,23,4.00
2019,03,27,07,24,3.90
2019,03,27,07,25,3.80
2019,03,27,07,26,3.80
2019,03,27,07,27,3.70
2019,03,27,07,28,3.70
2019,03,27,07,29,3.60
2019,03,27,07,30,3.60
2019,03,27,07,31,3.50
2019,03,27,07,32,3.50
2019,03,27,07,33,3.40
2019,03,27,07,34,3.40
2019,03,27,07,35,3.40
2019,03,27,07,36,3.40
2019,03,27,07,37,3.40
2019,03,27,07,38,3.30
2019,03,27,07,39,3.30
2019,03,27,07,40,3.30
2019,03,27,07,41,3.30
2019,03,27,07,42,3.20
2019,03,27,07,43,3.20
2019,03,27,07,44,3.20
2019,03,27,07,45,3.20
2019,03,27,07,46,3.20
2019,03,27,07,47,3.20
2019,03,27,07,48,3.20
2019,03,27,07,49,3.20
2019,03,27,07,50,3.30
2019,03,27,07,51,3.30
2019,03,27,07,52,3.30
2019,03,27,07,53,3.40
2019,03,27,07,54,3.40
2019,03,27,07,55,3.40
2019,03,27,07,56,3.40
2019,03,27,07,57,3.50
2019,03,27,07,58,3.60
2019,03,27,07,59,3.70
2019,03,27,08,00,3.90
2019,03,27,08,01,3.90
2019,03,27,08,02,3.90
2019,03,27,08,03,3.90
2019,03,27,08,04,3.80
2019,03,27,08,05,3.80
2019,03,27,08,06,3.90
2019,03,27,08,07,4.00
2019,03,27,08,08,4.10
2019,03,27,08,09,4.20
2019,03,27,08,10,4.20
2019,03,27,08,11,4.20
2019,03,27,08,12,4.30
2019,03,27,08,13,4.40
2019,03,27,08,14,4.40
2019,03,27,08,15,4.50
2019,03,27,08,16,4.50
2019,03,27,08,17,4.60
2019,03,27,08,18,4.70
2019,03,27,08,19,4.80
2019,03,27,08,20,4.90
2019,03,27,08,21,4.90
2019,03,27,08,22,5.00
2019,03,27,08,23,5.00
2019,03,27,08,24,5.10
2019,03,27,08,25,5.20
2019,03,27,08,26,5.40
2019,03,27,08,27,5.60
2019,03,27,08,28,5.80
2019,03,27,08,29,5.90
2019,03,27,08,30,6.00
2019,03,27,08,31,6.00
2019,03,27,08,32,6.10
2019,03,27,08,33,6.10
2019,03,27,08,34,6.20
2019,03,27,08,35,6.30
2019,03,27,08,36,6.40
2019,03,27,08,37,6.60
2019,03,27,08,38,6.70
2019,03,27,08,39,6.80
2019,03,27,08,40,6.90
2019,03,27,08,41,7.00
2019,03,27,08,42,7.10
2019,03,27,08,43,7.20
2019,03,27,08,44,7.20
2019,03,27,08,45,7.30
2019,03,27,08,46,7.30
2019,03,27,08,47,7.40
2019,03,27,08,48,7.40
2019,03,27,08,49,7.50
2019,03,27,08,50,7.60
2019,03,27,08,51,7.60
2019,03,27,08,52,7.60
2019,03,27,08,53,7.70
2019,03,27,08,54,7.70
2019,03,27,08,55,7.80
2019,03,27,08,56,7.80
2019,03,27,08,57,7.80
2019,03,27,08,58,7.90
2019,03,27,08,59,7.90
2019,03,27,09,00,7.90
2019,03,27,09,01,7.90
2019,03,27,09,02,7.90
2019,03,27,09,03,7.90
2019,03,27,09,04,7.90
2019,03,27,09,05,7.90
2019,03,27,09,06,7.90
2019,03,27,09,07,8.00
2019,03,27,09,08,8.00
2019,03,27,09,09,8.10
2019,03,27,09,10,8.10
2019,03,27,09,11,8.10
2019,03,27,09,12,8.20
2019,03,27,09,13,8.20
2019,03,27,09,14,8.20
2019,03,27,09,15,8.10
2019,03,27,09,16,8.10
2019,03,27,09,17,8.10
2019,03,27,09,18,8.10
2019,03,27,09,19,8.20
2019,03,27,09,20,8.20
2019,03,27,09,21,8.20
2019,03,27,09,22,8.20
2019,03,27,09,23,8.30
2019,03,27,09,24,8.20
2019,03,27,09,25,8.20
2019,03,27,09,26,8.30
2019,03,27,09,27,8.30
2019,03,27,09,28,8.30
2019,03,27,09,29,8.40
2019,03,27,09,30,8.40
2019,03,27,09,31,8.40
2019,03,27,09,32,8.50
2019,03,27,09,33,8.50
2019,03,27,09,34,8.50
2019,03,27,09,35,8.60
2019,03,27,09,36,8.60
2019,03,27,09,37,8.60
2019,03,27,09,38,8.60
2019,03,27,09,39,8.70
2019,03,27,09,40,8.70
2019,03,27,09,41,8.70
2019,03,27,09,42,8.70
2019,03,27,09,43,8.70
2019,03,27,09,44,8.80
2019,03,27,09,45,8.80
2019,03,27,09,46,8.80
2019,03,27,09,47,8.80
2019,03,27,09,48,8.80
2019,03,27,09,49,8.80
2019,03,27,09,50,8.80
2019,03,27,09,51,8.80
2019,03,27,09,52,8.80
2019,03,27,09,53,8.80
2019,03,27,09,54,8.80
2019,03,27,09,55,8.80
2019,03,27,09,56,8.80
2019,03,27,09,57,8.90
2019,03,27,09,58,8.90
2019,03,27,09,59,8.80
2019,03,27,10,00,8.80
2019,03,27,10,01,8.90
2019,03,27,10,02,8.90
2019,03,27,10,03,8.90
2019,03,27,10,04,9.00
2019,03,27,10,05,9.10
2019,03,27,10,06,9.10
2019,03,27,10,07,9.10
2019,03,27,10,08,9.10
2019,03,27,10,09,9.10
2019,03,27,10,10,9.20
2019,03,27,10,11,9.20
2019,03,27,10,12,9.20
2019,03,27,10,13,9.20
2019,03,27,10,14,9.20
2019,03,27,10,15,9.30
2019,03,27,10,16,9.30
2019,03,27,10,17,9.30
2019,03,27,10,18,9.30
2019,03,27,10,19,9.40
2019,03,27,10,20,9.40
2019,03,27,10,21,9.40
2019,03,27,10,22,9.40
2019,03,27,10,23,9.40
2019,03,27,10,24,9.40
2019,03,27,10,25,9.50
2019,03,27,10,26,9.50
2019,03,27,10,27,9.60
2019,03,27,10,28,9.60
2019,03,27,10,29,9.60
2019,03,27,10,30,9.60
2019,03,27,10,31,9.60
2019,03,27,10,32,9.60
2019,03,27,10,33,9.60
2019,03,27,10,34,9.70
2019,03,27,10,35,9.70
2019,03,27,10,36,9.70
2019,03,27,10,37,9.70
2019,03,27,10,38,9.70
2019,03,27,10,39,9.70
2019,03,27,10,40,9.80
2019,03,27,10,41,9.80
2019,03,27,10,42,9.80
2019,03,27,10,43,9.80
2019,03,27,10,44,9.80
2019,03,27,10,45,9.90
2019,03,27,10,46,9.80
2019,03,27,10,47,9.80
2019,03,27,10,48,9.90
2019,03,27,10,49,9.90
2019,03,27,10,50,9.90
2019,03,27,10,51,9.90
2019,03,27,10,52,10.00
2019,03,27,10,53,10.00
2019,03,27,10,54,10.00
2019,03,27,10,55,9.90
2019,03,27,10,56,9.90
2019,03,27,10,57,9.90
2019,03,27,10,58,9.90
2019,03,27,10,59,9.90
2019,03,27,11,00,10.00
2019,03,27,11,01,9.90
2019,03,27,11,02,9.90
2019,03,27,11,03,10.00
2019,03,27,11,04,10.00
2019,03,27,11,05,10.10
2019,03,27,11,06,10.10
2019,03,27,11,07,10.20
2019,03,27,11,08,10.20
2019,03,27,11,09,10.20
2019,03,27,11,10,10.20
2019,03,27,11,11,10.20
2019,03,27,11,12,10.30
2019,03,27,11,13,10.30
2019,03,27,11,14,10.40
2019,03,27,11,15,10.40
2019,03,27,11,16,10.40
2019,03,27,11,17,10.40
2019,03,27,11,18,10.30
2019,03,27,11,19,10.30
2019,03,27,11,20,10.30
2019,03,27,11,21,10.30
2019,03,27,11,22,10.30
2019,03,27,11,23,10.30
2019,03,27,11,24,10.30
2019,03,27,11,25,10.30
2019,03,27,11,26,10.30
2019,03,27,11,27,10.40
2019,03,27,11,28,10.40
2019,03,27,11,29,10.40
2019,03,27,11,30,10.50
2019,03,27,11,31,10.60
2019,03,27,11,32,10.60
2019,03,27,11,33,10.70
2019,03,27,11,34,10.70
2019,03,27,11,35,10.70
2019,03,27,11,36,10.70
2019,03,27,11,37,10.60
2019,03,27,11,38,10.60
2019,03,27,11,39,10.70
2019,03,27,11,40,10.70
2019,03,27,11,41,10.70
2019,03,27,11,42,10.70
2019,03,27,11,43,10.70
2019,03,27,11,44,10.80
2019,03,27,11,45,10.90
2019,03,27,11,46,10.80
2019,03,27,11,47,10.80
2019,03,27,11,48,10.90
2019,03,27,11,49,10.90
2019,03,27,11,50,11.00
2019,03,27,11,51,11.10
2019,03,27,11,52,11.10
2019,03,27,11,53,11.20
2019,03,27,11,54,11.30
2019,03,27,11,55,11.30
2019,03,27,11,56,11.30
2019,03,27,11,57,11.30
2019,03,27,11,58,11.40
2019,03,27,11,59,11.60
2019,03,27,12,00,11.60
2019,03,27,12,01,11.60
2019,03,27,12,02,11.70
2019,03,27,12,03,11.70
2019,03,27,12,04,11.80
2019,03,27,12,05,11.80
2019,03,27,12,06,11.80
2019,03,27,12,07,11.80
2019,03,27,12,08,11.80
2019,03,27,12,09,11.80
2019,03,27,12,10,11.90
2019,03,27,12,11,12.00
2019,03,27,12,12,12.10
2019,03,27,12,13,12.20
2019,03,27,12,14,12.30
2019,03,27,12,15,12.30
2019,03,27,12,16,12.30
2019,03,27,12,17,12.30
2019,03,27,12,18,12.30
2019,03,27,12,19,12.30
2019,03,27,12,20,12.30
2019,03,27,12,21,12.30
2019,03,27,12,22,12.30
2019,03,27,12,23,12.30
2019,03,27,12,24,12.30
2019,03,27,12,25,12.30
2019,03,27,12,26,12.30
2019,03,27,12,27,12.30
2019,03,27,12,28,12.30
2019,03,27,12,29,12.40
2019,03,27,12,30,12.40
2019,03,27,12,31,12.30
2019,03,27,12,32,12.20
2019,03,27,12,33,12.20
2019,03,27,12,34,12.30
2019,03,27,12,35,12.40
2019,03,27,12,36,12.50
2019,03,27,12,37,12.60
2019,03,27,12,38,12.50
2019,03,27,12,39,12.50
2019,03,27,12,40,12.50
2019,03,27,12,41,12.50
2019,03,27,12,42,12.40
2019,03,27,12,43,12.50
2019,03,27,12,44,12.50
2019,03,27,12,45,12.60
2019,03,27,12,46,12.60
2019,03,27,12,47,12.60
2019,03,27,12,48,12.60
2019,03,27,12,49,12.70
2019,03,27,12,50,12.80
2019,03,27,12,51,12.90
2019,03,27,12,52,12.80
2019,03,27,12,53,12.80
2019,03,27,12,54,12.70
2019,03,27,12,55,12.70
2019,03,27,12,56,12.70
2019,03,27,12,57,12.70
2019,03,27,12,58,12.70
2019,03,27,12,59,12.70
2019,03,27,13,00,12.70
2019,03,27,13,01,12.70
2019,03,27,13,02,12.70
2019,03,27,13,03,12.60
2019,03,27,13,04,12.50
2019,03,27,13,05,12.50
2019,03,27,13,06,12.60
2019,03,27,13,07,12.70
2019,03,27,13,08,12.80
2019,03,27,13,09,12.90
2019,03,27,13,10,13.00
2019,03,27,13,11,13.00
2019,03,27,13,12,13.00
2019,03,27,13,13,12.90
2019,03,27,13,14,12.90
2019,03,27,13,15,12.90
2019,03,27,13,16,13.00
2019,03,27,13,17,13.20
2019,03,27,13,18,13.10
2019,03,27,13,19,13.10
2019,03,27,13,20,13.20
2019,03,27,13,21,13.30
2019,03,27,13,22,13.30
2019,03,27,13,23,13.30
2019,03,27,13,24,13.30
2019,03,27,13,25,13.30
2019,03,27,13,26,13.40
2019,03,27,13,27,13.50
2019,03,27,13,28,13.60
2019,03,27,13,29,13.60
2019,03,27,13,30,13.70
2019,03,27,13,31,13.80
2019,03,27,13,32,13.80
2019,03,27,13,33,13.70
2019,03,27,13,34,13.70
2019,03,27,13,35,13.80
2019,03,27,13,36,13.80
2019,03,27,13,37,13.90
2019,03,27,13,38,13.90
2019,03,27,13,39,13.90
2019,03,27,13,40,13.80
2019,03,27,13,41,13.80
2019,03,27,13,42,13.80
2019,03,27,13,43,13.80
2019,03,27,13,44,13.90
2019,03,27,13,45,14.00
2019,03,27,13,46,14.10
2019,03,27,13,47,14.20
2019,03,27,13,48,14.10
2019,03,27,13,49,14.00
2019,03,27,13,50,13.90
2019,03,27,13,51,13.80
2019,03,27,13,52,13.70
2019,03,27,13,53,13.50
2019,03,27,13,54,13.50
2019,03,27,13,55,13.50
2019,03,27,13,56,13.40
2019,03,27,13,57,13.40
2019,03,27,13,58,13.40
2019,03,27,13,59,13.40
2019,03,27,14,00,13.50
2019,03,27,14,01,13.50
2019,03,27,14,02,13.70
2019,03,27,14,03,13.80
2019,03,27,14,04,14.00
2019,03,27,14,05,14.10
2019,03,27,14,06,14.30
2019,03,27,14,07,14.40
2019,03,27,14,08,14.50
2019,03,27,14,09,14.40
2019,03,27,14,10,14.40
2019,03,27,14,11,14.40
2019,03,27,14,12,14.20
2019,03,27,14,13,14.20
2019,03,27,14,14,14.20
2019,03,27,14,15,14.10
2019,03,27,14,16,14.10
2019,03,27,14,17,14.10
2019,03,27,14,18,14.10
2019,03,27,14,19,14.10
2019,03,27,14,20,14.10
2019,03,27,14,21,14.20
2019,03,27,14,22,14.20
2019,03,27,14,23,14.30
2019,03,27,14,24,14.30
2019,03,27,14,25,14.30
2019,03,27,14,26,14.40
2019,03,27,14,27,14.50
2019,03,27,14,28,14.60
2019,03,27,14,29,14.60
2019,03,27,14,30,14.60
2019,03,27,14,31,14.60
2019,03,27,14,32,14.60
2019,03,27,14,33,14.60
2019,03,27,14,34,14.50
2019,03,27,14,35,14.60
2019,03,27,14,36,14.70
2019,03,27,14,37,14.80
2019,03,27,14,38,14.80
2019,03,27,14,39,14.80
2019,03,27,14,40,14.80
2019,03,27,14,41,14.70
2019,03,27,14,42,14.60
2019,03,27,14,43,14.60
2019,03,27,14,44,14.50
2019,03,27,14,45,14.40
2019,03,27,14,46,14.50
2019,03,27,14,47,14.50
2019,03,27,14,48,14.60
2019,03,27,14,49,14.60
2019,03,27,14,50,14.60
2019,03,27,14,51,14.70
2019,03,27,14,52,14.70
2019,03,27,14,53,14.70
2019,03,27,14,54,14.70
2019,03,27,14,55,14.70
2019,03,27,14,56,14.60
2019,03,27,14,57,14.60
2019,03,27,14,58,14.60
2019,03,27,14,59,14.50
2019,03,27,15,00,14.60
2019,03,27,15,01,14.60
2019,03,27,15,02,14.60
2019,03,27,15,03,14.70
2019,03,27,15,04,14.70
2019,03,27,15,05,14.60
2019,03,27,15,06,14.70
2019,03,27,15,07,14.70
2019,03,27,15,08,14.70
2019,03,27,15,09,14.70
2019,03,27,15,10,14.70
2019,03,27,15,11,14.70
2019,03,27,15,12,14.70
2019,03,27,15,13,14.80
2019,03,27,15,14,14.80
2019,03,27,15,15,14.80
2019,03,27,15,16,14.80
2019,03,27,15,17,14.80
2019,03,27,15,18,14.90
2019,03,27,15,19,15.00
2019,03,27,15,20,15.10
2019,03,27,15,21,15.10
2019,03,27,15,22,15.20
2019,03,27,15,23,15.20
2019,03,27,15,24,15.10
2019,03,27,15,25,15.10
2019,03,27,15,26,15.10
2019,03,27,15,27,15.10
2019,03,27,15,28,15.10
2019,03,27,15,29,15.10
2019,03,27,15,30,15.00
2019,03,27,15,31,15.00
2019,03,27,15,32,15.10
2019,03,27,15,33,15.00
2019,03,27,15,34,14.90
2019,03,27,15,35,14.80
2019,03,27,15,36,14.80
2019,03,27,15,37,14.80
2019,03,27,15,38,14.70
2019,03,27,15,39,14.70
2019,03,27,15,40,14.60
2019,03,27,15,41,14.60
2019,03,27,15,42,14.70
2019,03,27,15,43,14.70
2019,03,27,15,44,14.80
2019,03,27,15,45,14.80
2019,03,27,15,46,14.90
2019,03,27,15,47,14.90
2019,03,27,15,48,14.90
2019,03,27,15,49,15.00
2019,03,27,15,50,15.00
2019,03,27,15,51,15.10
2019,03,27,15,52,15.10
2019,03,27,15,53,15.20
2019,03,27,15,54,15.20
2019,03,27,15,55,15.20
2019,03,27,15,56,15.20
2019,03,27,15,57,15.20
2019,03,27,15,58,15.20
2019,03,27,15,59,15.20
2019,03,27,16,00,15.20
2019,03,27,16,01,15.20
2019,03,27,16,02,15.20
2019,03,27,16,03,15.20
2019,03,27,16,04,15.30
2019,03,27,16,05,15.30
2019,03,27,16,06,15.40
2019,03,27,16,07,15.40
2019,03,27,16,08,15.40
2019,03,27,16,09,15.40
2019,03,27,16,10,15.20
2019,03,27,16,11,15.20
2019,03,27,16,12,15.10
2019,03,27,16,13,15.10
2019,03,27,16,14,15.10
2019,03,27,16,15,15.10
2019,03,27,16,16,15.10
2019,03,27,16,17,15.10
2019,03,27,16,18,15.10
2019,03,27,16,19,15.20
2019,03,27,16,20,15.20
2019,03,27,16,21,15.20
2019,03,27,16,22,15.20
2019,03,27,16,23,15.20
2019,03,27,16,24,15.20
2019,03,27,16,25,15.20
2019,03,27,16,26,15.30
2019,03,27,16,27,15.20
2019,03,27,16,28,15.20
2019,03,27,16,29,15.20
2019,03,27,16,30,15.20
2019,03,27,16,31,15.20
2019,03,27,16,32,15.20
2019,03,27,16,33,15.20
2019,03,27,16,34,15.20
2019,03,27,16,35,15.10
2019,03,27,16,36,15.10
2019,03,27,16,37,15.10
2019,03,27,16,38,15.20
2019,03,27,16,39,15.20
2019,03,27,16,40,15.30
2019,03,27,16,41,15.30
2019,03,27,16,42,15.40
2019,03,27,16,43,15.40
2019,03,27,16,44,15.40
2019,03,27,16,45,15.40
2019,03,27,16,46,15.30
2019,03,27,16,47,15.30
2019,03,27,16,48,15.30
2019,03,27,16,49,15.30
2019,03,27,16,50,15.30
2019,03,27,16,51,15.30
2019,03,27,16,52,15.20
2019,03,27,16,53,15.20
2019,03,27,16,54,15.10
2019,03,27,16,55,15.10
2019,03,27,16,56,15.10
2019,03,27,16,57,15.10
2019,03,27,16,58,15.10
2019,03,27,16,59,15.00
2019,03,27,17,00,15.00
2019,03,27,17,01,15.00
2019,03,27,17,02,15.00
2019,03,27,17,03,15.00
2019,03,27,17,04,15.00
2019,03,27,17,05,15.00
2019,03,27,17,06,15.00
2019,03,27,17,07,15.00
2019,03,27,17,08,15.00
2019,03,27,17,09,15.00
2019,03,27,17,10,15.00
2019,03,27,17,11,15.10
2019,03,27,17,12,15.10
2019,03,27,17,13,15.10
2019,03,27,17,14,15.10
2019,03,27,17,15,15.10
2019,03,27,17,16,15.10
2019,03,27,17,17,15.10
2019,03,27,17,18,15.00
2019,03,27,17,19,15.00
2019,03,27,17,20,14.90
2019,03,27,17,21,14.90
2019,03,27,17,22,15.00
2019,03,27,17,23,15.00
2019,03,27,17,24,15.10
2019,03,27,17,25,15.10
2019,03,27,17,26,15.20
2019,03,27,17,27,15.30
2019,03,27,17,28,15.30
2019,03,27,17,29,15.20
2019,03,27,17,30,15.20
2019,03,27,17,31,15.10
2019,03,27,17,32,15.00
2019,03,27,17,33,15.00
2019,03,27,17,34,14.90
2019,03,27,17,35,14.90
2019,03,27,17,36,14.90
2019,03,27,17,37,14.90
2019,03,27,17,38,14.90
2019,03,27,17,39,15.00
2019,03,27,17,40,15.00
2019,03,27,17,41,15.10
2019,03,27,17,42,15.10
2019,03,27,17,43,15.10
2019,03,27,17,44,15.10
2019,03,27,17,45,15.10
2019,03,27,17,46,15.10
2019,03,27,17,47,15.10
2019,03,27,17,48,15.20